TimeCDT,TemperatureF,Dew PointF,Humidity,Sea Level PressureIn,VisibilityMPH,Wind Direction,Wind SpeedMPH,Gust SpeedMPH,PrecipitationIn,Events,Conditions,WindDirDegrees,DateUTC
12:15 AM,71.1,65.7,83,29.72,10.0,SSW,6.9,-,N/A,,Overcast,210,2013-05-22 05:15:00
12:35 AM,70.9,65.8,84,29.72,10.0,South,8.1,-,N/A,,Overcast,190,2013-05-22 05:35:00
12:55 AM,70.7,65.8,85,29.72,10.0,SSW,6.9,-,N/A,,Overcast,200,2013-05-22 05:55:00
1:15 AM,70.3,66.0,86,29.72,10.0,SSW,6.9,-,N/A,,Overcast,200,2013-05-22 06:15:00
1:35 AM,70.2,66.2,87,29.72,10.0,South,5.8,-,N/A,,Overcast,190,2013-05-22 06:35:00
1:55 AM,70.0,66.2,88,29.72,10.0,South,6.9,-,N/A,,Overcast,180,2013-05-22 06:55:00
2:15 AM,69.8,66.0,88,29.71,10.0,South,9.2,-,N/A,,Overcast,170,2013-05-22 07:15:00
2:35 AM,69.6,65.8,88,29.71,10.0,SSE,6.9,-,N/A,,Overcast,160,2013-05-22 07:35:00
2:55 AM,69.3,65.8,89,29.70,10.0,South,8.1,-,N/A,,Overcast,180,2013-05-22 07:55:00
3:15 AM,69.1,65.7,89,29.70,10.0,South,9.2,-,N/A,,Overcast,180,2013-05-22 08:15:00
3:35 AM,68.9,65.7,89,29.70,10.0,South,5.8,-,N/A,,Overcast,170,2013-05-22 08:35:00
3:55 AM,68.4,65.5,90,29.70,10.0,South,5.8,-,N/A,,Mostly Cloudy,170,2013-05-22 08:55:00
4:15 AM,68.0,65.5,92,29.70,10.0,South,5.8,-,N/A,,Scattered Clouds,170,2013-05-22 09:15:00
4:35 AM,68.0,65.5,92,29.69,10.0,South,4.6,-,N/A,,Mostly Cloudy,180,2013-05-22 09:35:00
4:55 AM,67.5,65.3,93,29.70,10.0,South,4.6,-,N/A,,Mostly Cloudy,180,2013-05-22 09:55:00
5:15 AM,67.5,65.5,93,29.69,10.0,South,5.8,-,N/A,,Overcast,170,2013-05-22 10:15:00
5:35 AM,67.8,65.1,91,29.70,10.0,SSW,9.2,-,N/A,,Overcast,200,2013-05-22 10:35:00
5:55 AM,67.8,64.6,89,29.70,10.0,South,10.4,-,N/A,,Overcast,190,2013-05-22 10:55:00
6:15 AM,67.3,64.6,91,29.69,10.0,South,10.4,-,N/A,,Overcast,190,2013-05-22 11:15:00
6:35 AM,66.4,64.6,94,29.70,7.0,South,9.2,-,N/A,,Overcast,180,2013-05-22 11:35:00
6:55 AM,65.8,64.6,96,29.70,2.0,SSW,8.1,-,N/A,,Overcast,200,2013-05-22 11:55:00
7:15 AM,64.9,64.4,98,29.70,1.5,SSW,10.4,-,N/A,,Overcast,200,2013-05-22 12:15:00
7:35 AM,64.6,64.4,99,29.70,2.5,South,10.4,16.1,N/A,,Overcast,190,2013-05-22 12:35:00
7:55 AM,64.9,64.6,99,29.69,7.0,South,9.2,-,N/A,,Overcast,190,2013-05-22 12:55:00
8:15 AM,65.5,64.8,98,29.69,10.0,SSW,9.2,-,N/A,,Overcast,200,2013-05-22 13:15:00
8:35 AM,66.0,64.9,96,29.68,10.0,SSW,9.2,-,N/A,,Overcast,200,2013-05-22 13:35:00
8:55 AM,66.4,65.1,96,29.68,10.0,South,8.1,-,N/A,,Overcast,190,2013-05-22 13:55:00
9:15 AM,66.9,65.3,95,29.67,10.0,South,9.2,-,N/A,,Overcast,190,2013-05-22 14:15:00
9:35 AM,67.5,65.3,93,29.68,10.0,South,12.7,-,N/A,,Overcast,190,2013-05-22 14:35:00
9:55 AM,68.0,65.1,90,29.69,10.0,SSW,11.5,-,N/A,,Overcast,200,2013-05-22 14:55:00
10:15 AM,69.1,65.5,88,29.69,10.0,SW,13.8,-,N/A,,Overcast,220,2013-05-22 15:15:00
10:35 AM,69.1,64.9,87,29.70,10.0,SSW,13.8,-,N/A,,Overcast,200,2013-05-22 15:35:00
10:55 AM,69.4,65.3,87,29.69,10.0,SSW,10.4,-,N/A,,Overcast,210,2013-05-22 15:55:00
11:15 AM,70.5,65.8,85,29.69,7.0,SSW,9.2,-,N/A,,Overcast,210,2013-05-22 16:15:00
11:35 AM,69.3,65.8,89,29.69,7.0,SW,9.2,-,N/A,,Overcast,230,2013-05-22 16:35:00
11:55 AM,70.2,66.6,88,29.69,10.0,SSW,15.0,18.4,N/A,,Mostly Cloudy,210,2013-05-22 16:55:00
12:15 PM,72.5,65.5,79,29.68,10.0,SW,16.1,21.9,N/A,,Mostly Cloudy,220,2013-05-22 17:15:00
12:35 PM,72.7,63.9,74,29.68,10.0,SSW,16.1,26.5,N/A,,Mostly Cloudy,210,2013-05-22 17:35:00
12:55 PM,74.3,64.2,71,29.68,10.0,SW,21.9,-,N/A,,Scattered Clouds,220,2013-05-22 17:55:00
1:15 PM,73.6,62.4,68,29.67,10.0,SW,19.6,27.6,N/A,,Mostly Cloudy,230,2013-05-22 18:15:00
1:35 PM,70.2,63.1,78,29.68,7.0,SW,16.1,23.0,N/A,,Overcast,230,2013-05-22 18:35:00
1:55 PM,70.7,64.8,81,29.68,10.0,SW,13.8,-,N/A,,Mostly Cloudy,230,2013-05-22 18:55:00
2:15 PM,73.0,64.0,73,29.68,10.0,SW,19.6,28.8,N/A,,Mostly Cloudy,220,2013-05-22 19:15:00
2:35 PM,74.1,62.4,67,29.68,10.0,SW,19.6,27.6,N/A,,Mostly Cloudy,220,2013-05-22 19:35:00
2:55 PM,68.2,63.3,84,29.70,4.0,West,15.0,25.3,N/A,,Overcast,270,2013-05-22 19:55:00
3:15 PM,65.8,64.6,96,29.70,10.0,WSW,10.4,-,N/A,,Overcast,240,2013-05-22 20:15:00
3:35 PM,66.4,64.6,94,29.70,7.0,WSW,11.5,-,N/A,,Mostly Cloudy,240,2013-05-22 20:35:00
3:55 PM,66.7,64.8,93,29.70,7.0,WSW,11.5,-,N/A,,Mostly Cloudy,240,2013-05-22 20:55:00
4:15 PM,66.4,64.8,95,29.69,10.0,SW,9.2,-,N/A,,Overcast,220,2013-05-22 21:15:00
4:35 PM,67.5,65.8,95,29.69,10.0,SW,11.5,-,N/A,,Mostly Cloudy,230,2013-05-22 21:35:00
4:55 PM,68.7,66.4,92,29.69,10.0,WSW,9.2,-,N/A,,Scattered Clouds,250,2013-05-22 21:55:00
5:15 PM,69.6,65.5,87,29.68,10.0,West,8.1,-,N/A,,Clear,280,2013-05-22 22:15:00
5:35 PM,71.1,62.8,75,29.68,10.0,West,9.2,-,N/A,,Scattered Clouds,270,2013-05-22 22:35:00
5:55 PM,72.0,59.0,64,29.69,10.0,West,15.0,21.9,N/A,,Scattered Clouds,260,2013-05-22 22:55:00
6:15 PM,71.6,57.6,61,29.69,10.0,West,12.7,18.4,N/A,,Clear,270,2013-05-22 23:15:00
6:35 PM,71.1,56.3,60,29.69,10.0,West,10.4,-,N/A,,Scattered Clouds,270,2013-05-22 23:35:00
6:55 PM,69.8,56.3,62,29.70,10.0,West,6.9,-,N/A,,Mostly Cloudy,270,2013-05-22 23:55:00
7:15 PM,69.3,57.7,67,29.70,10.0,West,4.6,-,N/A,,Overcast,260,2013-05-23 00:15:00
7:35 PM,68.7,59.5,72,29.71,10.0,SW,4.6,-,N/A,,Overcast,230,2013-05-23 00:35:00
7:55 PM,68.0,59.9,75,29.71,10.0,WSW,4.6,-,N/A,,Mostly Cloudy,250,2013-05-23 00:55:00
8:15 PM,67.1,60.3,79,29.72,10.0,WSW,3.5,-,N/A,,Mostly Cloudy,250,2013-05-23 01:15:00
8:35 PM,66.4,60.6,82,29.73,7.0,WSW,15.0,18.4,N/A,,Overcast,240,2013-05-23 01:35:00
8:55 PM,64.6,60.1,85,29.72,10.0,WSW,4.6,-,N/A,,Overcast,240,2013-05-23 01:55:00
9:15 PM,63.7,60.6,90,29.73,10.0,WSW,4.6,-,N/A,,Overcast,240,2013-05-23 02:15:00
9:35 PM,63.7,61.0,91,29.74,10.0,SSW,6.9,-,N/A,,Overcast,210,2013-05-23 02:35:00
9:55 PM,63.0,60.8,93,29.74,10.0,SW,5.8,-,N/A,,Mostly Cloudy,230,2013-05-23 02:55:00
10:15 PM,62.6,60.8,94,29.75,7.0,West,10.4,-,N/A,,Overcast,260,2013-05-23 03:15:00
10:35 PM,62.4,60.8,94,29.75,10.0,WSW,4.6,-,N/A,,Overcast,240,2013-05-23 03:35:00
10:55 PM,62.1,60.8,96,29.75,10.0,SW,4.6,-,N/A,,Overcast,220,2013-05-23 03:55:00
11:15 PM,62.1,61.0,96,29.75,10.0,WSW,5.8,-,N/A,,Mostly Cloudy,240,2013-05-23 04:15:00
11:35 PM,62.1,61.2,97,29.75,10.0,SW,5.8,-,N/A,,Scattered Clouds,230,2013-05-23 04:35:00
11:55 PM,61.9,60.8,96,29.75,10.0,WSW,6.9,-,N/A,,Scattered Clouds,240,2013-05-23 04:55:00